Time,TemperatureF,DewpointF,PressureIn,WindDirection,WindDirectionDegrees,WindSpeedMPH,WindSpeedGustMPH,Humidity,HourlyPrecipIn,Conditions,Clouds,dailyrainin,SoftwareType,DateUTC
2013-06-14 00:01:00,49.3,40.7,30.00,SW,236,0.0,0.0,72,0.00,,---,0.00,VWS V13.00,2013-06-14 08:01:00,
2013-06-14 00:06:00,49.3,40.7,30.00,WSW,240,0.0,0.0,72,0.00,,---,0.00,VWS V13.00,2013-06-14 08:06:00,
2013-06-14 00:11:00,49.1,40.5,30.00,West,261,0.0,0.0,72,0.00,,---,0.00,VWS V13.00,2013-06-14 08:11:00,
2013-06-14 00:16:00,49.1,40.5,30.00,West,262,0.0,0.0,72,0.00,,---,0.00,VWS V13.00,2013-06-14 08:16:00,
2013-06-14 00:21:00,49.1,40.5,30.00,NW,324,0.0,0.0,72,0.00,,---,0.00,VWS V13.00,2013-06-14 08:21:00,
2013-06-14 00:26:00,49.1,40.5,30.00,NW,324,0.0,0.0,72,0.00,,---,0.00,VWS V13.00,2013-06-14 08:26:00,
2013-06-14 00:31:00,49.1,40.5,30.00,NW,317,0.0,0.0,72,0.00,,---,0.00,VWS V13.00,2013-06-14 08:31:00,
2013-06-14 00:36:00,48.9,40.7,30.00,West,281,0.0,0.0,73,0.00,,---,0.00,VWS V13.00,2013-06-14 08:36:00,
2013-06-14 00:41:00,48.9,40.7,30.00,WSW,255,0.0,0.0,73,0.00,,---,0.00,VWS V13.00,2013-06-14 08:41:00,
2013-06-14 00:46:00,48.7,40.5,30.00,West,263,0.0,0.0,73,0.00,,---,0.00,VWS V13.00,2013-06-14 08:46:00,
2013-06-14 00:51:00,48.7,40.5,30.00,WSW,246,0.0,0.0,73,0.00,,---,0.00,VWS V13.00,2013-06-14 08:51:00,
2013-06-14 00:56:00,48.7,40.5,30.00,West,280,0.0,0.0,73,0.00,,---,0.00,VWS V13.00,2013-06-14 08:56:00,
2013-06-14 01:01:00,48.7,40.8,30.00,WNW,294,0.0,0.0,74,0.00,,---,0.00,VWS V13.00,2013-06-14 09:01:00,
2013-06-14 01:06:00,48.7,40.8,30.03,WSW,251,0.0,0.0,74,0.00,,---,0.00,VWS V13.00,2013-06-14 09:06:00,
2013-06-14 01:11:00,48.7,41.2,30.03,WSW,250,0.0,0.0,75,0.00,,---,0.00,VWS V13.00,2013-06-14 09:11:00,
2013-06-14 01:16:00,48.7,41.2,30.03,NNE,18,0.0,0.0,75,0.00,,---,0.00,VWS V13.00,2013-06-14 09:16:00,
2013-06-14 01:21:00,48.4,40.5,30.03,NNE,18,0.0,0.0,74,0.00,,---,0.00,VWS V13.00,2013-06-14 09:21:00,
2013-06-14 01:26:00,48.2,40.7,30.03,NE,52,0.0,0.0,75,0.00,,---,0.00,VWS V13.00,2013-06-14 09:26:00,
2013-06-14 01:31:00,48.2,40.7,30.03,NE,40,0.0,0.0,75,0.00,,---,0.00,VWS V13.00,2013-06-14 09:31:00,
2013-06-14 01:36:00,47.5,40.3,30.03,East,88,0.0,4.0,76,0.00,,---,0.00,VWS V13.00,2013-06-14 09:36:00,
2013-06-14 01:41:00,47.5,40.3,30.03,North,353,0.0,0.0,76,0.00,,---,0.00,VWS V13.00,2013-06-14 09:41:00,
2013-06-14 01:46:00,47.5,40.6,30.03,NNE,17,0.0,0.0,77,0.00,,---,0.00,VWS V13.00,2013-06-14 09:46:00,
2013-06-14 01:51:00,47.3,40.5,30.03,North,0,0.0,0.0,77,0.00,,---,0.00,VWS V13.00,2013-06-14 09:51:00,
2013-06-14 01:56:00,47.7,41.5,30.03,SE,125,0.0,0.0,79,0.00,,---,0.00,VWS V13.00,2013-06-14 09:56:00,
2013-06-14 02:01:00,47.7,41.5,30.03,East,97,0.0,0.0,79,0.00,,---,0.00,VWS V13.00,2013-06-14 10:01:00,
2013-06-14 02:06:00,47.1,40.6,30.03,East,97,0.0,0.0,78,0.00,,---,0.00,VWS V13.00,2013-06-14 10:06:00,
2013-06-14 02:11:00,46.4,40.9,30.03,East,92,0.0,0.0,81,0.00,,---,0.00,VWS V13.00,2013-06-14 10:11:00,
2013-06-14 02:16:00,46.4,40.9,30.03,NNE,33,0.0,0.0,81,0.00,,---,0.00,VWS V13.00,2013-06-14 10:16:00,
2013-06-14 02:21:00,46.4,40.9,30.03,NNE,32,0.0,0.0,81,0.00,,---,0.00,VWS V13.00,2013-06-14 10:21:00,
2013-06-14 02:26:00,46.4,40.9,30.03,ENE,63,0.0,0.0,81,0.00,,---,0.00,VWS V13.00,2013-06-14 10:26:00,
2013-06-14 02:31:00,46.6,41.7,30.03,ENE,63,0.0,0.0,83,0.00,,---,0.00,VWS V13.00,2013-06-14 10:31:00,
2013-06-14 02:36:00,47.3,42.4,30.03,ENE,63,0.0,0.0,83,0.00,,---,0.00,VWS V13.00,2013-06-14 10:36:00,
2013-06-14 02:41:00,47.3,42.4,30.03,ENE,63,0.0,0.0,83,0.00,,---,0.00,VWS V13.00,2013-06-14 10:41:00,
2013-06-14 02:46:00,47.1,42.2,30.03,ENE,63,0.0,0.0,83,0.00,,---,0.00,VWS V13.00,2013-06-14 10:46:00,
2013-06-14 02:51:00,47.1,42.2,30.03,ENE,63,0.0,0.0,83,0.00,,---,0.00,VWS V13.00,2013-06-14 10:51:00,
2013-06-14 02:56:00,47.3,42.4,30.03,East,87,0.0,0.0,83,0.00,,---,0.00,VWS V13.00,2013-06-14 10:56:00,
2013-06-14 03:01:00,46.9,41.7,30.03,East,88,0.0,0.0,82,0.00,,---,0.00,VWS V13.00,2013-06-14 11:01:00,
2013-06-14 03:06:00,47.1,42.2,30.03,East,88,0.0,0.0,83,0.00,,---,0.00,VWS V13.00,2013-06-14 11:06:00,
2013-06-14 03:11:00,47.3,42.4,30.03,East,88,0.0,0.0,83,0.00,,---,0.00,VWS V13.00,2013-06-14 11:11:00,
2013-06-14 03:16:00,47.5,42.6,30.03,WSW,240,0.0,0.0,83,0.00,,---,0.00,VWS V13.00,2013-06-14 11:16:00,
2013-06-14 03:21:00,47.5,42.6,30.03,South,184,0.0,0.0,83,0.00,,---,0.00,VWS V13.00,2013-06-14 11:21:00,
2013-06-14 03:26:00,47.1,41.9,30.03,SW,235,0.0,0.0,82,0.00,,---,0.00,VWS V13.00,2013-06-14 11:26:00,
2013-06-14 03:31:00,47.3,42.4,30.03,SW,235,0.0,0.0,83,0.00,,---,0.00,VWS V13.00,2013-06-14 11:31:00,
2013-06-14 03:36:00,47.3,42.4,30.03,WSW,250,0.0,0.0,83,0.00,,---,0.00,VWS V13.00,2013-06-14 11:36:00,
2013-06-14 03:41:00,47.3,42.4,30.03,NW,317,0.0,0.0,83,0.00,,---,0.00,VWS V13.00,2013-06-14 11:41:00,
2013-06-14 03:46:00,47.5,42.6,30.03,NW,322,0.0,0.0,83,0.00,,---,0.00,VWS V13.00,2013-06-14 11:46:00,
2013-06-14 03:51:00,47.5,42.6,30.03,West,265,0.0,0.0,83,0.00,,---,0.00,VWS V13.00,2013-06-14 11:51:00,
2013-06-14 03:56:00,47.5,42.3,30.03,West,265,0.0,0.0,82,0.00,,---,0.00,VWS V13.00,2013-06-14 11:56:00,
2013-06-14 04:01:00,47.1,41.9,30.03,SE,137,0.0,0.0,82,0.00,,---,0.00,VWS V13.00,2013-06-14 12:01:00,
2013-06-14 04:06:00,46.9,41.7,30.03,SSE,165,0.0,0.0,82,0.00,,---,0.00,VWS V13.00,2013-06-14 12:06:00,
2013-06-14 04:11:00,46.8,41.6,30.03,SW,216,0.0,0.0,82,0.00,,---,0.00,VWS V13.00,2013-06-14 12:11:00,
2013-06-14 04:16:00,46.8,41.6,30.03,WSW,253,0.0,0.0,82,0.00,,---,0.00,VWS V13.00,2013-06-14 12:16:00,
2013-06-14 04:21:00,46.8,41.6,30.03,SW,220,0.0,0.0,82,0.00,,---,0.00,VWS V13.00,2013-06-14 12:21:00,
2013-06-14 04:26:00,46.6,41.7,30.03,SW,220,0.0,0.0,83,0.00,,---,0.00,VWS V13.00,2013-06-14 12:26:00,
2013-06-14 04:31:00,46.6,41.7,30.03,SW,222,0.0,0.0,83,0.00,,---,0.00,VWS V13.00,2013-06-14 12:31:00,
2013-06-14 04:36:00,46.6,41.7,30.03,SW,222,0.0,0.0,83,0.00,,---,0.00,VWS V13.00,2013-06-14 12:36:00,
2013-06-14 04:41:00,46.6,41.7,30.03,SW,222,0.0,0.0,83,0.00,,---,0.00,VWS V13.00,2013-06-14 12:41:00,
2013-06-14 04:46:00,46.6,41.7,30.03,SW,222,0.0,0.0,83,0.00,,---,0.00,VWS V13.00,2013-06-14 12:46:00,
2013-06-14 04:51:00,46.6,41.7,30.03,SW,222,0.0,0.0,83,0.00,,---,0.00,VWS V13.00,2013-06-14 12:51:00,
2013-06-14 04:56:00,46.6,42.0,30.03,SW,222,0.0,0.0,84,0.00,,---,0.00,VWS V13.00,2013-06-14 12:56:00,
2013-06-14 05:01:00,46.6,41.7,30.03,ENE,74,0.0,0.0,83,0.00,,---,0.00,VWS V13.00,2013-06-14 13:01:00,
2013-06-14 05:06:00,46.8,42.2,30.03,ENE,74,0.0,0.0,84,0.00,,---,0.00,VWS V13.00,2013-06-14 13:06:00,
2013-06-14 05:11:00,46.9,42.4,30.03,WSW,255,0.0,0.0,84,0.00,,---,0.00,VWS V13.00,2013-06-14 13:11:00,
2013-06-14 05:16:00,46.9,42.4,30.03,West,263,0.0,0.0,84,0.00,,---,0.00,VWS V13.00,2013-06-14 13:16:00,
2013-06-14 05:21:00,46.9,42.4,30.03,North,353,0.0,0.0,84,0.00,,---,0.00,VWS V13.00,2013-06-14 13:21:00,
2013-06-14 05:26:00,46.8,42.2,30.03,North,353,0.0,0.0,84,0.00,,---,0.00,VWS V13.00,2013-06-14 13:26:00,
2013-06-14 05:31:00,46.8,42.2,30.03,North,353,0.0,0.0,84,0.00,,---,0.00,VWS V13.00,2013-06-14 13:31:00,
2013-06-14 05:36:00,46.8,42.2,30.03,SW,232,0.0,0.0,84,0.00,,---,0.00,VWS V13.00,2013-06-14 13:36:00,
2013-06-14 05:41:00,46.8,42.2,30.03,WSW,257,0.0,0.0,84,0.00,,---,0.00,VWS V13.00,2013-06-14 13:41:00,
2013-06-14 05:46:00,46.9,42.4,30.03,WSW,257,0.0,0.0,84,0.00,,---,0.00,VWS V13.00,2013-06-14 13:46:00,
2013-06-14 05:51:00,47.1,42.5,30.03,WSW,257,0.0,0.0,84,0.00,,---,0.00,VWS V13.00,2013-06-14 13:51:00,
2013-06-14 05:56:00,47.1,42.5,30.03,WSW,257,0.0,0.0,84,0.00,,---,0.00,VWS V13.00,2013-06-14 13:56:00,
2013-06-14 06:01:00,47.3,42.7,30.03,South,190,0.0,0.0,84,0.00,,---,0.00,VWS V13.00,2013-06-14 14:01:00,
2013-06-14 06:06:00,47.3,42.7,30.03,SSW,199,0.0,0.0,84,0.00,,---,0.00,VWS V13.00,2013-06-14 14:06:00,
2013-06-14 06:11:00,47.3,42.7,30.03,SSW,199,0.0,0.0,84,0.00,,---,0.00,VWS V13.00,2013-06-14 14:11:00,
2013-06-14 06:16:00,46.9,42.4,30.03,SE,130,0.0,0.0,84,0.00,,---,0.00,VWS V13.00,2013-06-14 14:16:00,
2013-06-14 06:21:00,46.9,42.4,30.06,SE,130,0.0,0.0,84,0.00,,---,0.00,VWS V13.00,2013-06-14 14:21:00,
2013-06-14 06:26:00,46.9,42.7,30.06,SW,229,0.0,0.0,85,0.00,,---,0.00,VWS V13.00,2013-06-14 14:26:00,
2013-06-14 06:31:00,47.3,43.0,30.06,WSW,241,0.0,0.0,85,0.00,,---,0.00,VWS V13.00,2013-06-14 14:31:00,
2013-06-14 06:36:00,47.3,43.0,30.06,WSW,241,0.0,0.0,85,0.00,,---,0.00,VWS V13.00,2013-06-14 14:36:00,
2013-06-14 06:41:00,47.5,43.2,30.06,SSW,213,0.0,0.0,85,0.00,,---,0.00,VWS V13.00,2013-06-14 14:41:00,
2013-06-14 06:46:00,47.5,43.2,30.06,SW,220,0.0,0.0,85,0.00,,---,0.00,VWS V13.00,2013-06-14 14:46:00,
2013-06-14 06:51:00,47.8,43.6,30.06,SW,220,0.0,0.0,85,0.00,,---,0.00,VWS V13.00,2013-06-14 14:51:00,
2013-06-14 06:56:00,47.8,43.6,30.06,West,263,0.0,0.0,85,0.00,,---,0.00,VWS V13.00,2013-06-14 14:56:00,
2013-06-14 07:01:00,47.8,43.6,30.06,NW,304,0.0,0.0,85,0.00,,---,0.00,VWS V13.00,2013-06-14 15:01:00,
2013-06-14 07:06:00,47.8,43.6,30.06,WSW,251,0.0,0.0,85,0.00,,---,0.00,VWS V13.00,2013-06-14 15:06:00,
2013-06-14 07:11:00,48.4,44.1,30.06,SW,231,0.0,0.0,85,0.00,,---,0.00,VWS V13.00,2013-06-14 15:11:00,
2013-06-14 07:16:00,48.2,43.9,30.06,SW,231,0.0,0.0,85,0.00,,---,0.00,VWS V13.00,2013-06-14 15:16:00,
2013-06-14 07:21:00,48.2,43.9,30.06,WSW,251,0.0,0.0,85,0.00,,---,0.00,VWS V13.00,2013-06-14 15:21:00,
2013-06-14 07:26:00,48.2,43.9,30.06,WSW,251,0.0,0.0,85,0.00,,---,0.00,VWS V13.00,2013-06-14 15:26:00,
2013-06-14 07:31:00,48.6,44.3,30.06,WSW,258,0.0,0.0,85,0.00,,---,0.00,VWS V13.00,2013-06-14 15:31:00,
2013-06-14 07:36:00,48.7,44.4,30.06,WSW,257,0.0,0.0,85,0.00,,---,0.00,VWS V13.00,2013-06-14 15:36:00,
2013-06-14 07:41:00,48.7,44.4,30.06,WSW,257,0.0,0.0,85,0.00,,---,0.00,VWS V13.00,2013-06-14 15:41:00,
2013-06-14 07:46:00,48.9,44.6,30.06,WSW,257,0.0,0.0,85,0.00,,---,0.00,VWS V13.00,2013-06-14 15:46:00,
2013-06-14 07:51:00,48.9,44.3,30.06,SW,236,0.0,0.0,84,0.00,,---,0.00,VWS V13.00,2013-06-14 15:51:00,
2013-06-14 07:56:00,48.7,44.1,30.06,WSW,252,0.0,0.0,84,0.00,,---,0.00,VWS V13.00,2013-06-14 15:56:00,
2013-06-14 08:01:00,49.1,44.5,30.06,WSW,254,0.0,0.0,84,0.00,,---,0.00,VWS V13.00,2013-06-14 16:01:00,
2013-06-14 08:06:00,49.3,44.7,30.06,West,262,0.0,0.0,84,0.00,,---,0.00,VWS V13.00,2013-06-14 16:06:00,
2013-06-14 08:11:00,49.6,45.0,30.06,West,262,0.0,0.0,84,0.00,,---,0.00,VWS V13.00,2013-06-14 16:11:00,
2013-06-14 08:16:00,49.6,45.0,30.06,NNW,342,0.0,0.0,84,0.00,,---,0.00,VWS V13.00,2013-06-14 16:16:00,
2013-06-14 08:21:00,50.0,45.4,30.06,NNW,342,0.0,0.0,84,0.00,,---,0.00,VWS V13.00,2013-06-14 16:21:00,
2013-06-14 08:26:00,50.2,45.2,30.06,WNW,294,0.0,0.0,83,0.00,,---,0.00,VWS V13.00,2013-06-14 16:26:00,
2013-06-14 08:31:00,50.2,45.2,30.06,West,272,0.0,0.0,83,0.00,,---,0.00,VWS V13.00,2013-06-14 16:31:00,
2013-06-14 08:36:00,50.4,45.4,30.06,SW,236,0.0,0.0,83,0.00,,---,0.00,VWS V13.00,2013-06-14 16:36:00,
2013-06-14 08:41:00,50.5,45.6,30.06,SW,214,0.0,0.0,83,0.00,,---,0.00,VWS V13.00,2013-06-14 16:41:00,
2013-06-14 08:46:00,51.1,46.1,30.03,SW,214,0.0,0.0,83,0.00,,---,0.00,VWS V13.00,2013-06-14 16:46:00,
2013-06-14 08:51:00,51.4,45.8,30.03,West,268,0.0,0.0,81,0.00,,---,0.00,VWS V13.00,2013-06-14 16:51:00,
2013-06-14 08:56:00,51.6,45.7,30.03,West,260,0.0,0.0,80,0.00,,---,0.00,VWS V13.00,2013-06-14 16:56:00,
2013-06-14 09:01:00,52.0,45.7,30.03,WSW,253,0.0,0.0,79,0.00,,---,0.00,VWS V13.00,2013-06-14 17:01:00,
2013-06-14 09:06:00,52.3,45.7,30.03,WSW,253,0.0,0.0,78,0.00,,---,0.00,VWS V13.00,2013-06-14 17:06:00,
2013-06-14 09:11:00,52.5,44.8,30.03,West,260,0.0,0.0,75,0.00,,---,0.00,VWS V13.00,2013-06-14 17:11:00,
2013-06-14 09:16:00,52.9,44.8,30.03,South,183,0.0,0.0,74,0.00,,---,0.00,VWS V13.00,2013-06-14 17:16:00,
2013-06-14 09:21:00,52.9,44.5,30.03,WSW,254,0.0,0.0,73,0.00,,---,0.00,VWS V13.00,2013-06-14 17:21:00,
2013-06-14 09:26:00,53.1,44.7,30.03,WNW,286,0.0,0.0,73,0.00,,---,0.00,VWS V13.00,2013-06-14 17:26:00,
2013-06-14 09:31:00,53.2,44.5,30.03,WSW,250,0.0,0.0,72,0.00,,---,0.00,VWS V13.00,2013-06-14 17:31:00,
2013-06-14 09:36:00,53.4,44.3,30.03,SW,236,0.0,0.0,71,0.00,,---,0.00,VWS V13.00,2013-06-14 17:36:00,
2013-06-14 09:41:00,53.6,44.1,30.03,WSW,249,0.0,0.0,70,0.00,,---,0.00,VWS V13.00,2013-06-14 17:41:00,
2013-06-14 09:46:00,54.0,43.7,30.03,SW,224,0.0,0.0,68,0.00,,---,0.00,VWS V13.00,2013-06-14 17:46:00,
2013-06-14 09:51:00,54.3,44.0,30.03,WSW,258,0.0,0.0,68,0.00,,---,0.00,VWS V13.00,2013-06-14 17:51:00,
2013-06-14 09:56:00,54.5,43.8,30.03,WSW,258,0.0,0.0,67,0.00,,---,0.00,VWS V13.00,2013-06-14 17:56:00,
2013-06-14 10:01:00,55.0,44.3,30.03,SW,236,0.0,0.0,67,0.00,,---,0.00,VWS V13.00,2013-06-14 18:01:00,
2013-06-14 10:06:00,53.8,40.7,30.03,WSW,241,0.0,0.0,61,0.00,,---,0.00,VWS V13.00,2013-06-14 18:06:00,
2013-06-14 10:11:00,53.6,41.3,30.03,WSW,241,0.0,0.0,63,0.00,,---,0.00,VWS V13.00,2013-06-14 18:11:00,
2013-06-14 10:16:00,54.3,42.4,30.03,WSW,244,0.0,0.0,64,0.00,,---,0.00,VWS V13.00,2013-06-14 18:16:00,
2013-06-14 10:21:00,55.8,43.4,30.03,WSW,244,0.0,0.0,63,0.00,,---,0.00,VWS V13.00,2013-06-14 18:21:00,
2013-06-14 10:26:00,56.7,43.4,30.03,SW,217,0.0,0.0,61,0.00,,---,0.00,VWS V13.00,2013-06-14 18:26:00,
2013-06-14 10:31:00,58.3,45.3,30.03,SW,217,0.0,0.0,62,0.00,,---,0.00,VWS V13.00,2013-06-14 18:31:00,
2013-06-14 10:36:00,59.9,45.1,30.03,West,261,0.0,0.0,58,0.00,,---,0.00,VWS V13.00,2013-06-14 18:36:00,
2013-06-14 10:41:00,59.9,40.7,30.03,SE,137,0.0,0.0,49,0.00,,---,0.00,VWS V13.00,2013-06-14 18:41:00,
2013-06-14 10:46:00,61.0,42.7,30.03,SW,224,0.0,0.0,51,0.00,,---,0.00,VWS V13.00,2013-06-14 18:46:00,
2013-06-14 10:51:00,62.2,42.3,30.03,SSW,200,0.0,0.0,48,0.00,,---,0.00,VWS V13.00,2013-06-14 18:51:00,
2013-06-14 10:55:00,62.2,40.7,30.03,SSW,204,0.0,0.0,45,0.00,,---,0.00,VWS V13.00,2013-06-14 18:55:00,
2013-06-14 11:00:00,62.8,41.2,30.03,SSW,204,0.0,0.0,45,0.00,,---,0.00,VWS V13.00,2013-06-14 19:00:00,
2013-06-14 11:05:00,64.2,41.9,30.03,SW,224,0.0,0.0,44,0.00,,---,0.00,VWS V13.00,2013-06-14 19:05:00,
2013-06-14 11:10:00,65.5,42.4,30.06,South,181,0.0,0.0,43,0.00,,---,0.00,VWS V13.00,2013-06-14 19:10:00,
2013-06-14 11:15:00,66.9,42.5,30.06,South,181,0.0,0.0,41,0.00,,---,0.00,VWS V13.00,2013-06-14 19:15:00,
2013-06-14 11:20:00,68.0,42.8,30.06,SSW,211,0.0,0.0,40,0.00,,---,0.00,VWS V13.00,2013-06-14 19:20:00,
2013-06-14 11:25:00,68.5,41.3,30.06,SSW,211,0.0,0.0,37,0.00,,---,0.00,VWS V13.00,2013-06-14 19:25:00,
2013-06-14 11:30:00,69.3,41.9,30.06,SSW,211,0.0,0.0,37,0.00,,---,0.00,VWS V13.00,2013-06-14 19:30:00,
2013-06-14 11:35:00,69.8,40.9,30.03,SSW,202,0.0,0.0,35,0.00,,---,0.00,VWS V13.00,2013-06-14 19:35:00,
2013-06-14 11:40:00,68.7,39.2,30.03,SSW,194,0.0,0.0,34,0.00,,---,0.00,VWS V13.00,2013-06-14 19:40:00,
2013-06-14 11:45:00,68.5,39.8,30.03,SSW,208,0.0,0.0,35,0.00,,---,0.00,VWS V13.00,2013-06-14 19:45:00,
2013-06-14 11:50:00,69.1,41.0,30.03,SSW,208,0.0,0.0,36,0.00,,---,0.00,VWS V13.00,2013-06-14 19:50:00,
2013-06-14 11:55:00,70.7,41.7,30.03,SSW,209,0.0,0.0,35,0.00,,---,0.00,VWS V13.00,2013-06-14 19:55:00,
2013-06-14 12:00:00,71.1,42.0,30.03,SSW,207,0.0,0.0,35,0.00,,---,0.00,VWS V13.00,2013-06-14 20:00:00,
2013-06-14 12:05:00,72.0,42.1,30.03,SSW,207,0.0,0.0,34,0.00,,---,0.00,VWS V13.00,2013-06-14 20:05:00,
2013-06-14 12:10:00,72.1,41.5,30.03,SSW,207,0.0,0.0,33,0.00,,---,0.00,VWS V13.00,2013-06-14 20:10:00,
2013-06-14 12:15:00,72.1,40.7,30.03,SW,214,0.0,0.0,32,0.00,,---,0.00,VWS V13.00,2013-06-14 20:15:00,
2013-06-14 12:20:00,72.1,40.7,30.06,SW,214,0.0,0.0,32,0.00,,---,0.00,VWS V13.00,2013-06-14 20:20:00,
2013-06-14 12:25:00,72.9,42.1,30.06,SSW,202,0.0,0.0,33,0.00,,---,0.00,VWS V13.00,2013-06-14 20:25:00,
2013-06-14 12:30:00,72.3,40.8,30.06,SSW,211,0.0,0.0,32,0.00,,---,0.00,VWS V13.00,2013-06-14 20:30:00,
2013-06-14 12:35:00,71.2,40.7,30.06,SSW,211,0.0,0.0,33,0.00,,---,0.00,VWS V13.00,2013-06-14 20:35:00,
2013-06-14 12:40:00,73.4,44.1,30.06,SW,221,0.0,0.0,35,0.00,,---,0.00,VWS V13.00,2013-06-14 20:40:00,
2013-06-14 12:45:00,75.4,43.5,30.06,SW,224,0.0,3.6,32,0.00,,---,0.00,VWS V13.00,2013-06-14 20:45:00,
2013-06-14 12:50:00,76.5,44.4,30.06,SW,215,0.0,3.6,32,0.00,,---,0.00,VWS V13.00,2013-06-14 20:50:00,
2013-06-14 12:55:00,77.4,45.2,30.06,ENE,74,0.0,3.6,32,0.00,,---,0.00,VWS V13.00,2013-06-14 20:55:00,
2013-06-14 13:00:00,75.7,43.0,30.06,ESE,104,0.0,0.0,31,0.00,,---,0.00,VWS V13.00,2013-06-14 21:00:00,
2013-06-14 13:05:00,72.3,40.8,30.03,East,87,0.0,0.0,32,0.00,,---,0.00,VWS V13.00,2013-06-14 21:05:00,
2013-06-14 13:10:00,68.0,38.6,30.03,ESE,120,0.0,0.0,34,0.00,,---,0.00,VWS V13.00,2013-06-14 21:10:00,
2013-06-14 13:15:00,69.3,40.5,30.03,SSW,200,0.0,0.0,35,0.00,,---,0.00,VWS V13.00,2013-06-14 21:15:00,
2013-06-14 13:20:00,70.7,41.7,30.03,SSW,213,0.0,0.0,35,0.00,,---,0.00,VWS V13.00,2013-06-14 21:20:00,
2013-06-14 13:25:00,72.3,42.4,30.03,SW,222,0.0,4.0,34,0.00,,---,0.00,VWS V13.00,2013-06-14 21:25:00,
2013-06-14 13:30:00,74.1,43.2,30.03,SW,216,0.0,4.0,33,0.00,,---,0.00,VWS V13.00,2013-06-14 21:30:00,
2013-06-14 13:36:00,76.3,45.9,30.03,SW,223,0.0,4.0,34,0.00,,---,0.00,VWS V13.00,2013-06-14 21:36:00,
2013-06-14 13:41:00,76.6,44.6,30.03,SSW,199,0.0,0.0,32,0.00,,---,0.00,VWS V13.00,2013-06-14 21:41:00,
2013-06-14 13:46:00,74.7,42.0,30.03,ESE,104,0.0,0.0,31,0.00,,---,0.00,VWS V13.00,2013-06-14 21:46:00,
2013-06-14 13:51:00,73.8,42.1,30.03,East,92,0.0,0.0,32,0.00,,---,0.00,VWS V13.00,2013-06-14 21:51:00,
2013-06-14 13:56:00,67.3,38.7,30.03,East,101,0.0,0.0,35,0.00,,---,0.00,VWS V13.00,2013-06-14 21:56:00,
2013-06-14 14:01:00,67.3,38.7,30.03,East,87,0.0,0.0,35,0.00,,---,0.00,VWS V13.00,2013-06-14 22:01:00,
2013-06-14 14:06:00,67.5,39.6,30.03,ESE,119,0.0,0.0,36,0.00,,---,0.00,VWS V13.00,2013-06-14 22:06:00,
2013-06-14 14:11:00,67.5,39.6,30.03,East,88,0.0,0.0,36,0.00,,---,0.00,VWS V13.00,2013-06-14 22:11:00,
2013-06-14 14:16:00,67.3,39.4,30.03,East,90,0.0,0.0,36,0.00,,---,0.00,VWS V13.00,2013-06-14 22:16:00,
2013-06-14 14:21:00,67.8,39.9,30.03,ENE,75,0.0,0.0,36,0.00,,---,0.00,VWS V13.00,2013-06-14 22:21:00,
2013-06-14 14:26:00,67.6,39.8,30.03,South,169,0.0,0.0,36,0.00,,---,0.00,VWS V13.00,2013-06-14 22:26:00,
2013-06-14 14:31:00,68.7,40.7,30.03,SSW,202,0.0,0.0,36,0.00,,---,0.00,VWS V13.00,2013-06-14 22:31:00,
2013-06-14 14:36:00,70.5,41.6,30.03,SSE,157,0.0,0.0,35,0.00,,---,0.00,VWS V13.00,2013-06-14 22:36:00,
2013-06-14 14:41:00,70.5,41.6,30.03,SSE,157,0.0,0.0,35,0.00,,---,0.00,VWS V13.00,2013-06-14 22:41:00,
2013-06-14 14:46:00,72.3,41.6,30.03,SSW,202,0.0,0.0,33,0.00,,---,0.00,VWS V13.00,2013-06-14 22:46:00,
2013-06-14 14:51:00,72.5,41.8,30.03,SSW,199,0.0,0.0,33,0.00,,---,0.00,VWS V13.00,2013-06-14 22:51:00,
2013-06-14 14:56:00,73.6,42.7,30.03,SSW,206,0.0,0.0,33,0.00,,---,0.00,VWS V13.00,2013-06-14 22:56:00,
2013-06-14 15:01:00,73.4,41.8,30.03,SSE,163,0.0,0.0,32,0.00,,---,0.00,VWS V13.00,2013-06-14 23:01:00,
2013-06-14 15:06:00,71.6,41.0,30.03,SSW,209,0.0,0.0,33,0.00,,---,0.00,VWS V13.00,2013-06-14 23:06:00,
2013-06-14 15:11:00,71.8,41.2,30.03,SE,126,0.0,0.0,33,0.00,,---,0.00,VWS V13.00,2013-06-14 23:11:00,
2013-06-14 15:16:00,71.2,40.7,30.03,East,92,0.0,0.0,33,0.00,,---,0.00,VWS V13.00,2013-06-14 23:16:00,
2013-06-14 15:21:00,71.2,40.7,30.03,ESE,102,0.0,0.0,33,0.00,,---,0.00,VWS V13.00,2013-06-14 23:21:00,
2013-06-14 15:26:00,70.2,40.5,30.03,SSW,206,0.0,0.0,34,0.00,,---,0.00,VWS V13.00,2013-06-14 23:26:00,
2013-06-14 15:31:00,71.4,40.8,30.03,South,183,0.0,0.0,33,0.00,,---,0.00,VWS V13.00,2013-06-14 23:31:00,
2013-06-14 15:36:00,70.7,40.2,30.03,South,177,0.0,0.0,33,0.00,,---,0.00,VWS V13.00,2013-06-14 23:36:00,
2013-06-14 15:41:00,70.7,39.4,30.03,SSW,206,0.0,0.0,32,0.00,,---,0.00,VWS V13.00,2013-06-14 23:41:00,
2013-06-14 15:46:00,71.4,40.0,30.03,ESE,106,0.0,0.0,32,0.00,,---,0.00,VWS V13.00,2013-06-14 23:46:00,
2013-06-14 15:51:00,70.3,39.1,30.03,SE,133,0.0,0.0,32,0.00,,---,0.00,VWS V13.00,2013-06-14 23:51:00,
2013-06-14 15:56:00,71.1,39.7,30.03,SSW,197,0.0,0.0,32,0.00,,---,0.00,VWS V13.00,2013-06-14 23:56:00,
2013-06-14 16:01:00,72.0,40.5,30.03,SSW,213,0.0,0.0,32,0.00,,---,0.00,VWS V13.00,2013-06-15 00:01:00,
2013-06-14 16:06:00,73.2,41.6,30.03,SW,216,0.0,0.0,32,0.00,,---,0.00,VWS V13.00,2013-06-15 00:06:00,
2013-06-14 16:11:00,73.8,41.3,30.03,South,173,0.0,0.0,31,0.00,,---,0.00,VWS V13.00,2013-06-15 00:11:00,
2013-06-14 16:16:00,73.2,40.8,30.03,SW,218,0.0,0.0,31,0.00,,---,0.00,VWS V13.00,2013-06-15 00:16:00,
2013-06-14 16:21:00,73.9,41.4,30.03,SSE,159,0.0,0.0,31,0.00,,---,0.00,VWS V13.00,2013-06-15 00:21:00,
2013-06-14 16:26:00,74.1,42.4,30.03,ESE,103,0.0,0.0,32,0.00,,---,0.00,VWS V13.00,2013-06-15 00:26:00,
2013-06-14 16:31:00,73.9,39.7,30.03,SSW,210,0.0,0.0,29,0.00,,---,0.00,VWS V13.00,2013-06-15 00:31:00,
2013-06-14 16:36:00,74.3,39.1,30.03,SSE,158,0.0,0.0,28,0.00,,---,0.00,VWS V13.00,2013-06-15 00:36:00,
2013-06-14 16:41:00,73.0,38.0,30.06,South,170,0.0,0.0,28,0.00,,---,0.00,VWS V13.00,2013-06-15 00:41:00,
2013-06-14 16:46:00,71.4,36.7,30.06,East,90,0.0,0.0,28,0.00,,---,0.00,VWS V13.00,2013-06-15 00:46:00,
2013-06-14 16:51:00,70.3,35.7,30.06,SSE,160,0.0,0.0,28,0.00,,---,0.00,VWS V13.00,2013-06-15 00:51:00,
2013-06-14 16:56:00,70.7,36.0,30.06,South,177,0.0,2.2,28,0.00,,---,0.00,VWS V13.00,2013-06-15 00:56:00,
2013-06-14 17:01:00,70.0,35.4,30.03,SSE,166,0.0,0.0,28,0.00,,---,0.00,VWS V13.00,2013-06-15 01:01:00,
2013-06-14 17:06:00,70.7,36.9,30.03,SSW,212,0.0,0.0,29,0.00,,---,0.00,VWS V13.00,2013-06-15 01:06:00,
2013-06-14 17:11:00,70.9,36.2,30.03,SSW,201,0.0,0.0,28,0.00,,---,0.00,VWS V13.00,2013-06-15 01:11:00,
2013-06-14 17:16:00,71.2,36.5,30.03,SW,221,0.0,0.0,28,0.00,,---,0.00,VWS V13.00,2013-06-15 01:16:00,
2013-06-14 17:21:00,73.0,38.0,30.03,South,189,0.0,0.0,28,0.00,,---,0.00,VWS V13.00,2013-06-15 01:21:00,
2013-06-14 17:26:00,73.0,37.1,30.03,SSE,159,0.0,0.0,27,0.00,,---,0.00,VWS V13.00,2013-06-15 01:26:00,
2013-06-14 17:31:00,73.9,39.7,30.03,SSW,210,0.0,0.0,29,0.00,,---,0.00,VWS V13.00,2013-06-15 01:31:00,
2013-06-14 17:36:00,74.3,38.2,30.03,SW,233,0.0,0.0,27,0.00,,---,0.00,VWS V13.00,2013-06-15 01:36:00,
2013-06-14 17:41:00,74.3,37.2,30.03,WSW,244,0.0,0.0,26,0.00,,---,0.00,VWS V13.00,2013-06-15 01:41:00,
2013-06-14 17:46:00,74.7,39.4,30.03,SSW,197,0.0,0.0,28,0.00,,---,0.00,VWS V13.00,2013-06-15 01:46:00,
2013-06-14 17:51:00,74.1,37.1,30.03,SSW,203,0.0,0.0,26,0.00,,---,0.00,VWS V13.00,2013-06-15 01:51:00,
2013-06-14 17:56:00,73.9,38.8,30.03,WSW,241,0.0,0.0,28,0.00,,---,0.00,VWS V13.00,2013-06-15 01:56:00,
2013-06-14 18:01:00,73.9,36.9,30.03,SW,231,0.0,0.0,26,0.00,,---,0.00,VWS V13.00,2013-06-15 02:01:00,
2013-06-14 18:07:00,73.9,36.9,30.03,West,265,0.0,0.0,26,0.00,,---,0.00,VWS V13.00,2013-06-15 02:07:00,
2013-06-14 18:12:00,73.8,37.7,30.03,West,261,0.0,0.0,27,0.00,,---,0.00,VWS V13.00,2013-06-15 02:12:00,
2013-06-14 18:17:00,74.5,38.3,30.03,WSW,243,0.0,0.0,27,0.00,,---,0.00,VWS V13.00,2013-06-15 02:17:00,
2013-06-14 18:22:00,75.4,39.1,30.03,WSW,248,0.0,0.0,27,0.00,,---,0.00,VWS V13.00,2013-06-15 02:22:00,
2013-06-14 18:26:00,75.2,38.0,30.03,WSW,249,0.0,0.0,26,0.00,,---,0.00,VWS V13.00,2013-06-15 02:26:00,
2013-06-14 18:31:00,75.9,38.6,30.03,WNW,298,0.0,0.0,26,0.00,,---,0.00,VWS V13.00,2013-06-15 02:31:00,
2013-06-14 18:36:00,75.9,38.6,30.03,West,268,0.0,0.0,26,0.00,,---,0.00,VWS V13.00,2013-06-15 02:36:00,
2013-06-14 18:41:00,74.3,36.2,30.03,WSW,244,0.0,0.0,25,0.00,,---,0.00,VWS V13.00,2013-06-15 02:41:00,
2013-06-14 18:46:00,73.8,35.8,30.03,WSW,247,0.0,0.0,25,0.00,,---,0.00,VWS V13.00,2013-06-15 02:46:00,
2013-06-14 18:51:00,72.9,35.0,30.03,WSW,238,0.0,0.0,25,0.00,,---,0.00,VWS V13.00,2013-06-15 02:51:00,
2013-06-14 18:56:00,72.9,36.0,30.03,West,270,0.0,0.0,26,0.00,,---,0.00,VWS V13.00,2013-06-15 02:56:00,
2013-06-14 19:01:00,72.5,35.7,30.03,WSW,256,0.0,0.0,26,0.00,,---,0.00,VWS V13.00,2013-06-15 03:01:00,
2013-06-14 19:06:00,72.3,35.5,30.03,WSW,253,0.0,0.0,26,0.00,,---,0.00,VWS V13.00,2013-06-15 03:06:00,
2013-06-14 19:11:00,72.1,35.4,30.03,SSW,207,0.0,0.0,26,0.00,,---,0.00,VWS V13.00,2013-06-15 03:11:00,
2013-06-14 19:16:00,72.1,35.4,30.03,WSW,244,0.0,0.0,26,0.00,,---,0.00,VWS V13.00,2013-06-15 03:16:00,
2013-06-14 19:21:00,70.7,35.1,30.03,SW,229,0.0,0.0,27,0.00,,---,0.00,VWS V13.00,2013-06-15 03:21:00,
2013-06-14 19:26:00,70.5,35.0,30.03,SSW,199,0.0,0.0,27,0.00,,---,0.00,VWS V13.00,2013-06-15 03:26:00,
2013-06-14 19:31:00,70.5,35.0,30.03,WSW,252,0.0,0.0,27,0.00,,---,0.00,VWS V13.00,2013-06-15 03:31:00,
2013-06-14 19:36:00,70.5,35.0,30.03,South,190,0.0,0.0,27,0.00,,---,0.00,VWS V13.00,2013-06-15 03:36:00,
2013-06-14 19:41:00,69.6,35.1,30.03,SSW,197,0.0,0.0,28,0.00,,---,0.00,VWS V13.00,2013-06-15 03:41:00,
2013-06-14 19:46:00,68.9,36.2,30.03,SSW,202,0.0,0.0,30,0.00,,---,0.00,VWS V13.00,2013-06-15 03:46:00,
2013-06-14 19:51:00,68.4,34.9,30.03,SSW,208,0.0,0.0,29,0.00,,---,0.00,VWS V13.00,2013-06-15 03:51:00,
2013-06-14 19:56:00,68.0,34.6,30.03,SW,236,0.0,0.0,29,0.00,,---,0.00,VWS V13.00,2013-06-15 03:56:00,
2013-06-14 20:01:00,68.0,34.6,30.03,SW,231,0.0,0.0,29,0.00,,---,0.00,VWS V13.00,2013-06-15 04:01:00,
2013-06-14 20:06:00,67.8,35.3,30.03,South,178,0.0,0.0,30,0.00,,---,0.00,VWS V13.00,2013-06-15 04:06:00,
2013-06-14 20:11:00,67.6,36.0,30.03,South,181,0.0,0.0,31,0.00,,---,0.00,VWS V13.00,2013-06-15 04:11:00,
2013-06-14 20:16:00,67.3,35.6,30.03,ESE,108,0.0,0.0,31,0.00,,---,0.00,VWS V13.00,2013-06-15 04:16:00,
2013-06-14 20:21:00,67.1,35.5,30.03,East,95,0.0,0.0,31,0.00,,---,0.00,VWS V13.00,2013-06-15 04:21:00,
2013-06-14 20:26:00,66.7,36.0,30.03,ESE,105,0.0,0.0,32,0.00,,---,0.00,VWS V13.00,2013-06-15 04:26:00,
2013-06-14 20:31:00,66.4,35.7,30.03,East,98,0.0,0.0,32,0.00,,---,0.00,VWS V13.00,2013-06-15 04:31:00,
2013-06-14 20:36:00,66.2,36.3,30.03,East,85,0.0,0.0,33,0.00,,---,0.00,VWS V13.00,2013-06-15 04:36:00,
2013-06-14 20:41:00,65.5,37.1,30.03,East,92,0.0,0.0,35,0.00,,---,0.00,VWS V13.00,2013-06-15 04:41:00,
2013-06-14 20:46:00,65.1,36.8,30.03,East,89,0.0,0.0,35,0.00,,---,0.00,VWS V13.00,2013-06-15 04:46:00,
2013-06-14 20:51:00,64.8,37.2,30.03,East,89,0.0,0.0,36,0.00,,---,0.00,VWS V13.00,2013-06-15 04:51:00,
2013-06-14 20:56:00,64.0,37.3,30.03,ESE,121,0.0,2.2,37,0.00,,---,0.00,VWS V13.00,2013-06-15 04:56:00,
2013-06-14 21:01:00,63.0,37.0,30.03,ESE,104,0.0,0.0,38,0.00,,---,0.00,VWS V13.00,2013-06-15 05:01:00,
2013-06-14 21:06:00,62.2,37.6,30.06,East,85,0.0,0.0,40,0.00,,---,0.00,VWS V13.00,2013-06-15 05:06:00,
2013-06-14 21:11:00,62.1,38.1,30.06,East,89,0.0,0.0,41,0.00,,---,0.00,VWS V13.00,2013-06-15 05:11:00,
2013-06-14 21:16:00,61.9,38.6,30.06,East,79,0.0,0.0,42,0.00,,---,0.00,VWS V13.00,2013-06-15 05:16:00,
2013-06-14 21:21:00,61.7,39.0,30.06,East,86,0.0,0.0,43,0.00,,---,0.00,VWS V13.00,2013-06-15 05:21:00,
2013-06-14 21:26:00,61.2,38.5,30.06,East,90,0.0,0.0,43,0.00,,---,0.00,VWS V13.00,2013-06-15 05:26:00,
2013-06-14 21:31:00,60.8,38.8,30.06,East,90,0.0,0.0,44,0.00,,---,0.00,VWS V13.00,2013-06-15 05:31:00,
2013-06-14 21:36:00,60.6,39.2,30.06,East,90,0.0,0.0,45,0.00,,---,0.00,VWS V13.00,2013-06-15 05:36:00,
2013-06-14 21:41:00,60.3,38.8,30.06,East,90,0.0,0.0,45,0.00,,---,0.00,VWS V13.00,2013-06-15 05:41:00,
2013-06-14 21:46:00,59.9,38.5,30.06,East,90,0.0,0.0,45,0.00,,---,0.00,VWS V13.00,2013-06-15 05:46:00,
2013-06-14 21:51:00,59.5,38.8,30.06,SE,125,0.0,0.0,46,0.00,,---,0.00,VWS V13.00,2013-06-15 05:51:00,
2013-06-14 21:56:00,59.2,39.0,30.06,East,90,0.0,0.0,47,0.00,,---,0.00,VWS V13.00,2013-06-15 05:56:00,
2013-06-14 22:01:00,59.2,39.0,30.06,ENE,71,0.0,0.0,47,0.00,,---,0.00,VWS V13.00,2013-06-15 06:01:00,
2013-06-14 22:06:00,58.5,38.9,30.06,NNE,20,0.0,0.0,48,0.00,,---,0.00,VWS V13.00,2013-06-15 06:06:00,
2013-06-14 22:11:00,58.5,38.9,30.06,NNE,27,0.0,0.0,48,0.00,,---,0.00,VWS V13.00,2013-06-15 06:11:00,
2013-06-14 22:16:00,58.1,39.1,30.06,NE,41,0.0,0.0,49,0.00,,---,0.00,VWS V13.00,2013-06-15 06:16:00,
2013-06-14 22:21:00,57.9,39.4,30.06,East,94,0.0,0.0,50,0.00,,---,0.00,VWS V13.00,2013-06-15 06:21:00,